GFSSE_500_rhum_024.txt.gz
RH
84 52 58 65 53 27 27 23 16 9 10 13 9 4 5 6 7 8 7 6 6 6 7 6 6 6 4 4 5 5 13 11 13 19 20 27 34 45 61 77 75 84 79
69 51 62 54 18 11 9 7 7 11 8 4 5 6 4 3 3 4 5 6 6 5 6 6 8 10 8 4 5 7 7 9 8 6 5 3 5 11 14 29 64 77 92
48 33 22 12 5 7 7 7 5 3 5 6 3 4 5 5 6 5 6 6 6 5 6 6 6 5 5 5 4 6 8 8 6 6 4 2 2 16 24 27 42 60 67
47 22 8 5 7 8 9 8 5 6 6 4 5 6 6 7 7 7 8 8 8 9 9 10 10 9 8 6 5 6 6 6 7 9 11 6 4 18 38 30 36 96 97
25 6 5 7 8 7 5 5 5 5 4 5 6 6 7 8 9 11 10 9 9 8 9 10 11 10 10 9 8 6 6 7 7 6 8 12 10 10 20 30 34 50 84
5 5 6 7 3 2 3 3 4 4 5 6 6 7 8 10 12 15 16 17 18 18 19 19 20 21 21 17 12 10 8 8 7 5 4 4 4 10 11 45 45 37 34
5 6 5 2 2 3 4 4 5 6 6 6 7 9 10 11 12 13 14 19 22 24 26 28 29 29 28 28 28 28 24 14 9 9 9 8 7 6 15 38 23 37 56
7 4 3 4 4 5 6 6 7 8 9 10 10 10 10 10 11 12 14 17 20 23 25 26 27 27 27 28 29 31 33 35 35 24 13 12 12 15 8 4 4 10 25
3 3 4 5 6 6 7 8 9 9 9 9 10 10 11 14 16 19 24 25 26 28 28 29 28 27 27 29 32 34 35 36 34 38 40 36 24 15 15 13 10 5 3
4 4 5 6 6 7 8 9 9 9 11 14 17 21 22 23 24 23 22 19 20 24 24 25 30 34 33 32 33 34 34 33 29 30 36 41 44 45 31 20 16 14 10
5 6 6 8 9 9 11 12 17 21 21 22 25 25 23 26 27 24 24 26 28 29 30 32 32 33 34 35 37 40 36 36 37 33 31 32 37 38 39 40 35 22 17
6 8 7 9 9 12 20 26 27 22 18 16 20 28 29 30 33 36 37 37 35 34 34 35 34 36 37 38 38 37 36 37 37 36 34 34 33 35 34 35 35 35 30
9 10 9 13 17 24 28 26 22 18 15 19 19 25 29 32 32 33 34 33 32 32 34 35 36 35 35 37 37 33 27 30 33 35 34 34 33 32 35 34 32 32 33
11 15 14 18 26 23 27 37 44 34 28 25 16 18 21 29 28 31 31 33 35 38 38 36 36 37 37 35 34 31 19 14 15 22 30 32 33 33 29 31 33 33 34
17 13 20 33 58 60 78 76 67 72 51 48 46 45 34 27 36 34 33 29 32 38 35 32 27 22 22 24 26 27 20 17 16 14 12 13 14 15 17 16 17 21 27
17 21 31 92 41 62 66 85 73 67 72 54 45 44 30 37 38 37 38 37 38 38 32 25 23 21 20 20 19 17 18 20 21 20 19 19 17 15 15 15 15 15 14
12 10 18 20 76 55 60 60 73 81 58 52 37 37 38 42 47 50 50 44 38 35 33 31 30 30 29 27 23 23 22 21 22 22 22 21 22 23 23 22 20 17 15
17 16 23 30 53 52 49 69 71 66 53 52 48 37 47 51 52 50 46 42 41 40 36 34 34 33 32 32 31 31 30 27 26 26 26 25 23 22 22 22 20 21 21
23 22 37 76 72 68 48 60 51 43 54 51 47 53 54 53 47 46 46 45 41 40 40 39 38 36 35 34 33 32 31 30 28 27 26 26 24 23 21 21 20 19 18
40 58 85 65 75 68 46 42 60 60 50 52 57 60 63 57 53 50 47 48 47 44 40 37 30 22 15 13 13 13 14 15 14 13 13 13 15 21 26 25 22 21 19
71 65 82 61 46 44 36 40 55 51 58 64 66 64 60 56 55 56 55 47 37 30 22 18 15 15 14 13 12 11 11 12 14 15 16 15 14 13 12 14 20 22 22
92 85 51 45 39 39 38 46 59 67 72 68 68 68 68 67 64 52 36 29 21 18 17 17 17 17 19 20 19 19 13 15 18 20 22 25 22 21 20 19 15 15 17
72 60 58 51 48 50 55 60 64 73 78 79 78 77 72 57 42 32 27 22 20 20 22 23 22 23 23 22 24 22 21 18 16 21 31 34 35 33 36 36 33 26 26
56 51 52 56 58 57 57 61 72 80 88 90 86 73 55 44 38 34 29 28 30 30 30 27 26 24 23 26 28 34 34 30 23 15 19 26 45 56 62 72 62 50 40
61 63 62 56 54 56 64 72 80 81 72 54 44 35 32 34 31 27 28 28 29 34 35 31 28 31 38 38 33 27 25 25 22 19 17 20 20 28 55 63 70 66 58
86 85 67 59 60 64 71 74 56 37 30 26 22 26 34 34 33 34 35 37 34 28 26 29 30 24 17 12 10 8 8 7 7 6 6 6 6 6 6 11 24 42 44

GFSSE_500_rhum_027.txt.gz
RH
63 81 87 66 44 50 17 14 9 8 8 11 7 4 3 3 3 4 4 4 5 4 4 4 4 4 6 7 5 4 4 6 7 8 9 9 7 7 12 14 27 70 82
50 84 86 54 17 12 6 5 7 7 7 4 4 4 4 4 5 6 7 7 7 7 7 8 9 8 6 5 4 4 3 5 7 7 7 5 4 2 3 10 13 18 37
58 64 39 23 9 5 6 7 7 4 4 4 4 5 6 7 8 8 9 9 9 9 10 9 9 10 10 11 10 7 5 4 5 5 6 7 7 4 3 7 18 22 34
37 51 22 8 5 7 8 8 7 5 5 4 5 6 6 7 7 8 8 9 10 9 10 10 9 9 10 11 12 12 11 8 6 6 7 8 10 10 8 9 14 21 31
28 28 9 5 6 6 4 4 5 5 4 5 6 6 6 8 10 12 14 14 15 15 14 14 16 19 19 20 18 15 12 10 9 8 6 5 4 4 6 9 11 36 31
16 9 5 5 4 3 3 3 4 4 4 5 6 7 8 10 11 12 14 16 18 19 21 22 23 24 24 24 25 25 26 26 22 13 10 9 9 9 8 9 19 31 37
6 4 5 4 2 3 3 4 5 5 5 6 7 8 9 10 11 11 11 12 14 16 20 24 27 27 28 29 30 28 26 25 29 33 29 16 12 13 14 37 20 6 19
4 5 4 2 3 4 4 5 6 6 7 8 9 10 10 10 11 12 14 16 20 24 26 28 29 29 29 27 26 28 30 32 32 33 34 37 33 21 22 31 33 18 8
5 5 3 4 5 5 6 7 8 9 9 9 9 11 14 18 22 23 25 28 26 25 22 23 24 24 25 28 28 25 25 28 31 30 34 34 38 41 42 42 22 21 18
5 3 4 5 6 6 7 8 9 9 10 14 18 20 21 21 19 19 23 24 24 25 23 25 28 31 31 34 35 34 35 36 36 33 35 32 30 35 39 41 38 31 30
4 4 5 6 7 8 9 9 11 17 21 20 20 20 20 25 27 31 31 36 37 36 34 34 32 31 32 32 33 34 35 36 35 35 34 35 35 30 32 35 35 37 35
5 6 6 8 9 10 10 18 23 20 16 20 20 20 23 26 29 33 32 32 34 32 32 33 32 33 34 34 36 37 37 35 33 27 31 34 36 34 33 30 30 32 34
6 7 7 10 15 19 21 22 23 27 40 50 49 36 35 28 26 32 25 24 28 30 30 33 37 38 38 37 36 36 37 35 34 27 19 21 28 34 34 34 36 31 30
7 9 16 20 22 29 43 32 29 77 87 87 69 58 48 49 47 26 22 24 28 31 32 30 36 36 31 29 26 27 31 31 30 28 20 18 17 19 25 29 30 34 34
14 16 20 26 38 41 41 70 78 94 70 72 78 66 43 18 20 26 31 35 38 37 36 35 35 33 28 26 26 24 25 25 23 24 24 23 21 18 17 16 15 15 16
19 25 30 39 34 33 42 67 61 48 39 54 53 53 45 29 38 44 45 40 37 36 34 33 32 33 33 30 30 30 30 30 28 27 25 24 24 23 21 18 18 18 15
18 23 27 26 34 66 66 60 54 38 31 35 39 39 40 45 53 54 49 46 44 42 41 39 40 40 41 39 38 38 36 35 34 32 31 29 28 28 28 26 24 22 19
20 25 53 68 85 88 72 64 55 56 48 45 32 37 48 52 54 54 52 53 52 51 51 51 48 44 34 28 23 20 16 14 13 12 14 22 28 30 28 28 28 26 25
20 25 62 99 92 98 89 74 65 46 44 55 64 53 50 55 58 58 57 58 58 54 42 30 21 15 13 12 12 11 12 13 13 12 13 12 11 11 13 15 17 21 26
42 64 89 99 98 99 85 70 68 48 66 77 71 55 58 65 68 67 61 46 29 22 18 16 15 15 13 11 10 10 10 11 11 10 10 10 11 11 9 9 11 12 12
45 67 96 98 82 78 56 68 44 47 52 55 54 60 72 72 67 50 32 23 18 18 18 16 13 13 13 12 11 10 10 10 11 12 12 12 11 12 12 10 10 11 13
94 99 82 65 56 46 42 39 45 50 53 58 68 78 76 66 46 33 26 22 22 22 21 20 19 18 18 17 15 14 11 12 13 14 14 15 14 16 18 17 15 14 14
98 90 80 64 50 48 51 66 65 64 71 81 88 79 51 38 30 30 32 35 35 33 32 26 23 22 22 21 20 18 15 14 12 13 15 15 19 22 22 24 28 26 23
96 86 76 76 79 80 93 90 77 82 89 86 73 54 55 58 55 51 43 39 36 27 24 24 25 26 25 22 20 18 17 15 15 13 13 13 15 21 25 28 30 31 31
94 85 74 88 79 69 72 80 85 96 98 74 56 48 45 44 42 40 34 28 29 30 31 31 29 26 21 17 14 12 11 10 10 10 9 9 9 10 10 10 13 20 27
99 98 93 94 82 86 92 94 85 63 52 49 46 40 36 35 32 29 28 29 31 31 28 25 21 15 11 10 10 9 9 8 7 8 7 6 8 7 8 8 8 7 8

GFSSE_500_rhum_030.txt.gz
RH
79 54 47 53 94 81 21 8 4 6 6 6 4 3 4 6 6 7 7 7 8 8 9 10 11 12 12 10 7 5 4 4 5 7 9 8 7 7 5 5 9 10 18
82 70 41 45 75 42 8 4 6 6 4 4 4 5 6 8 8 10 10 10 11 10 11 12 13 13 14 15 16 15 10 6 6 5 6 6 6 6 5 3 2 10 16
99 91 85 45 42 10 4 6 7 6 4 5 5 6 6 7 8 10 11 11 11 11 12 11 11 12 12 14 15 16 18 16 13 8 6 6 6 8 10 8 5 14 20
89 61 30 20 15 5 6 8 8 7 5 5 5 6 6 7 9 12 12 12 12 12 12 12 12 14 17 19 20 19 20 19 16 14 10 9 7 6 6 4 8 9 20
79 68 15 11 8 6 7 5 5 5 4 5 6 6 6 7 8 11 14 15 15 16 16 16 17 18 19 20 21 23 23 23 24 24 21 14 11 11 13 11 8 15 23
71 52 11 9 5 6 4 4 4 4 4 5 6 6 6 7 10 11 12 12 12 12 13 16 19 20 21 22 23 24 25 25 23 23 26 32 29 20 14 16 21 22 28
30 20 7 4 7 3 3 4 4 4 5 6 6 6 8 9 10 10 11 12 13 14 16 20 23 23 22 19 18 20 21 21 22 25 27 28 31 32 31 25 26 32 18
12 5 4 7 3 3 4 4 5 6 6 6 7 9 10 10 11 14 19 20 20 22 21 22 20 20 20 19 19 23 28 29 28 28 28 27 29 31 32 32 35 37 22
5 5 8 5 3 4 5 5 6 7 8 9 9 9 12 16 20 19 18 18 23 25 25 25 26 25 26 27 28 30 31 31 32 33 35 34 32 26 28 32 34 40 44
4 6 6 3 5 5 6 7 8 9 8 9 15 21 21 16 14 16 20 24 25 29 29 32 30 29 28 26 25 26 26 29 33 34 35 34 34 32 30 26 28 34 38
5 4 4 5 6 6 8 8 9 10 15 22 21 20 22 23 21 18 20 26 29 27 25 29 31 28 29 30 31 29 28 27 30 32 34 32 30 34 34 34 30 25 30
5 5 7 7 9 9 9 9 13 18 26 26 43 62 73 62 43 43 39 30 31 24 23 25 28 29 28 33 36 33 33 32 27 29 30 31 24 18 24 32 34 33 28
7 8 9 9 10 14 16 17 23 25 30 38 60 79 84 77 62 44 38 37 28 28 29 29 34 38 41 42 40 34 30 25 22 21 24 26 26 20 15 15 23 31 32
9 9 11 16 18 20 21 31 43 59 50 70 89 57 73 62 61 47 24 25 30 35 38 37 37 38 40 39 38 34 30 30 28 26 24 22 21 22 19 16 15 14 21
13 15 18 18 22 28 43 51 52 80 85 70 49 50 43 32 33 36 32 28 31 32 38 41 40 40 40 40 39 38 38 36 35 34 33 31 29 27 24 23 23 22 18
17 16 20 23 29 30 26 26 51 70 64 57 55 50 40 26 25 27 32 30 32 38 43 44 44 44 44 46 48 46 43 41 39 38 37 35 35 34 33 30 28 26 25
19 21 31 43 52 66 75 70 86 87 74 59 45 37 31 26 33 35 37 43 49 49 50 52 55 55 52 43 30 21 17 16 14 14 14 14 13 12 12 14 23 31 29
32 26 50 69 67 83 98 98 96 97 94 90 64 36 32 48 48 46 52 56 57 57 54 50 34 21 19 18 17 16 16 16 13 13 12 11 10 10 9 9 9 11 15
26 27 51 66 72 88 98 95 97 92 74 65 43 43 53 49 50 53 59 60 54 40 24 19 17 16 14 14 15 15 14 14 13 12 12 12 11 10 10 10 8 8 9
38 38 55 68 96 97 95 98 69 56 49 41 45 48 51 52 55 59 55 38 24 22 20 21 21 21 18 17 16 16 15 15 14 13 13 12 12 11 10 9 10 10 8
53 57 73 88 97 97 92 70 66 50 49 56 64 68 64 62 61 47 29 26 27 28 24 21 21 20 20 18 16 16 16 16 14 15 15 14 12 12 11 10 10 10 10
84 92 98 82 54 64 60 54 61 74 70 64 67 66 68 67 51 38 33 30 28 27 27 28 27 26 24 20 16 14 12 13 14 16 16 16 15 14 14 13 12 11 11
95 72 65 82 73 68 81 71 82 68 62 70 70 62 47 40 38 42 47 47 46 42 32 27 23 18 15 15 14 14 14 13 12 14 17 18 17 16 16 15 14 13 13
70 56 53 67 91 90 72 73 76 67 76 83 76 59 60 66 67 58 39 33 27 22 19 16 14 13 14 16 17 20 21 20 18 13 13 12 13 14 13 12 12 12 14
56 59 88 89 95 95 94 81 88 85 76 59 62 66 58 46 34 30 25 20 16 14 15 16 17 17 19 24 28 26 22 18 14 12 11 10 9 8 8 8 8 8 9
74 96 99 98 75 75 88 97 96 82 62 58 49 40 35 32 27 23 18 16 17 18 19 21 22 26 32 27 21 18 12 10 9 13 17 13 8 6 7 8 8 8 8

GFSSE_500_rhum_036.txt.gz
RH
50 75 93 92 95 82 34 19 13 6 4 4 3 4 6 8 9 10 10 11 12 12 12 12 12 13 13 14 14 13 14 16 16 15 13 9 6 5 5 5 7 6 6
64 84 94 95 95 62 16 12 8 5 5 3 3 5 7 8 9 11 12 12 12 11 11 11 12 12 12 13 14 15 15 14 14 16 19 19 16 14 10 9 13 6 5
80 94 96 92 80 47 17 12 6 5 5 3 4 6 7 8 9 11 12 12 12 12 11 11 11 11 12 13 13 13 13 15 16 17 17 19 20 22 22 15 15 12 6
93 96 94 74 59 26 18 9 6 6 5 4 5 6 7 8 9 10 10 11 11 10 10 10 11 11 12 13 14 15 13 12 13 16 17 19 20 20 22 24 25 19 18
88 96 90 55 37 23 14 7 6 5 5 4 5 6 6 7 8 9 9 10 10 10 11 11 10 9 10 11 10 10 12 12 12 14 17 16 15 18 20 20 23 28 27
96 95 67 41 36 17 7 7 4 5 5 4 5 6 6 6 7 8 9 9 11 11 8 8 10 11 11 12 10 11 14 14 16 20 23 25 26 27 20 16 20 24 27
96 78 66 66 20 10 8 4 5 6 5 5 5 5 6 6 8 9 10 14 11 8 8 10 11 13 14 16 15 15 16 18 20 21 22 22 24 25 27 27 19 19 23
89 83 55 31 8 11 6 6 6 5 5 5 5 6 8 9 9 12 15 11 13 15 20 19 15 15 16 15 14 15 17 18 19 22 24 24 24 25 28 27 26 21 18
73 52 42 15 15 11 5 6 6 6 7 7 8 9 9 10 14 16 23 48 64 50 34 26 21 16 14 14 15 14 12 15 19 20 24 28 28 27 29 30 28 24 20
52 25 13 15 15 5 6 7 7 8 8 8 9 10 13 19 21 34 40 59 54 58 58 31 18 16 17 16 17 19 18 16 13 18 20 28 30 30 29 29 28 28 26
19 16 14 14 7 8 8 8 8 7 8 9 12 22 26 31 43 53 54 41 42 43 39 55 46 44 25 18 22 26 27 26 26 21 20 28 31 32 30 31 29 22 26
14 14 10 7 9 8 8 7 8 9 12 19 29 42 48 48 57 73 63 40 34 26 21 19 17 18 23 24 26 27 32 33 32 30 29 30 31 26 23 24 33 29 17
13 12 11 10 10 9 8 10 15 19 23 35 54 60 71 81 66 54 51 47 35 28 25 20 18 19 27 28 32 35 39 41 39 37 34 33 31 30 27 25 24 26 29
13 13 11 11 10 12 16 19 21 29 43 51 60 71 87 72 61 58 52 44 32 23 19 18 18 20 23 29 36 44 46 47 45 44 41 42 39 37 35 30 30 28 25
13 12 13 16 17 19 18 22 30 37 42 45 58 75 88 90 97 91 80 40 34 26 23 26 27 27 30 38 47 53 53 52 53 52 50 48 44 42 40 39 38 35 34
16 16 18 29 24 21 30 40 47 52 67 80 78 98 98 97 90 68 48 41 39 39 40 43 45 43 47 54 55 51 42 33 28 24 23 24 21 20 19 18 18 21 26
17 51 64 31 51 69 74 83 95 96 99 97 98 99 97 98 84 68 44 38 42 52 55 52 54 56 50 35 26 23 22 20 19 18 18 18 17 16 16 15 14 13 12
20 59 32 96 100 99 98 97 96 96 98 99 98 94 94 85 67 55 45 45 56 60 60 59 48 34 28 25 24 24 25 24 23 22 21 20 20 19 19 18 17 17 16
45 42 42 92 100 100 99 100 97 97 99 94 92 94 90 79 66 54 54 59 64 56 45 36 33 31 31 30 29 27 23 19 17 16 15 14 15 14 13 14 14 13 14
26 35 42 52 68 72 80 100 97 96 86 70 67 79 81 66 51 49 56 49 43 40 39 40 39 37 35 30 24 21 19 18 16 14 12 12 10 10 9 9 8 8 8
22 36 39 66 69 98 98 80 57 42 71 88 69 72 61 49 47 54 52 48 50 51 55 54 47 39 30 27 26 26 24 20 17 15 16 14 14 15 14 13 10 8 7
19 39 70 93 94 94 73 52 48 56 56 55 74 69 58 73 85 88 79 73 69 66 59 50 39 34 33 31 28 25 22 20 18 13 15 18 17 17 15 12 10 9 8
49 40 40 66 67 48 47 60 65 64 61 70 80 64 67 74 68 67 67 67 62 56 49 40 36 36 33 29 22 20 20 22 22 22 18 16 16 16 15 13 12 9 7
82 83 63 67 62 39 28 26 43 76 49 37 41 53 57 61 67 67 65 60 57 47 42 41 35 32 34 33 29 30 27 24 22 20 18 18 16 14 9 5 4 3 2
71 80 71 35 27 22 21 25 35 29 27 32 42 53 59 66 66 63 63 59 50 48 44 37 41 42 41 32 33 30 27 24 22 21 20 16 5 4 4 5 5 5 5
26 23 22 22 21 21 21 21 22 26 32 41 50 56 58 60 63 65 65 58 53 48 43 40 36 36 38 39 34 30 28 28 27 16 7 5 6 8 9 10 9 9 11